TimeCDT,TemperatureF,Dew PointF,Humidity,Sea Level PressureIn,VisibilityMPH,Wind Direction,Wind SpeedMPH,Gust SpeedMPH,PrecipitationIn,Events,Conditions,WindDirDegrees,DateUTC
11:15 AM,80.6,75.2,84,29.83,4.0,North,4.6,-,N/A,,Haze,360,2013-09-01 16:15:00
11:35 AM,82.4,75.2,79,29.82,5.0,Calm,Calm,-,N/A,,Haze,0,2013-09-01 16:35:00
11:55 AM,84.2,73.4,70,29.81,5.0,Calm,Calm,-,N/A,,Haze,0,2013-09-01 16:55:00
12:15 PM,86.0,73.4,66,29.82,7.0,Calm,Calm,-,N/A,,Clear,0,2013-09-01 17:15:00
12:35 PM,82.4,73.4,74,29.81,7.0,Calm,Calm,-,N/A,,Clear,0,2013-09-01 17:35:00
12:55 PM,84.2,73.4,70,29.83,7.0,Calm,Calm,-,N/A,,Clear,0,2013-09-01 17:55:00
1:15 PM,84.2,73.4,70,29.82,7.0,Calm,Calm,-,N/A,,Clear,0,2013-09-01 18:15:00
1:35 PM,84.2,73.4,70,29.83,10.0,Calm,Calm,-,N/A,,Clear,0,2013-09-01 18:35:00
1:55 PM,89.6,73.4,59,29.82,10.0,Calm,Calm,-,N/A,,Clear,0,2013-09-01 18:55:00
2:15 PM,87.8,73.4,62,29.82,10.0,Calm,Calm,-,N/A,,Clear,0,2013-09-01 19:15:00
2:35 PM,89.6,73.4,59,29.80,10.0,Calm,Calm,-,N/A,,Clear,0,2013-09-01 19:35:00
2:55 PM,89.6,73.4,59,29.80,10.0,WSW,5.8,-,N/A,,Scattered Clouds,240,2013-09-01 19:55:00
3:15 PM,89.6,73.4,59,29.80,10.0,NW,4.6,-,N/A,,Clear,310,2013-09-01 20:15:00
3:35 PM,87.8,73.4,62,29.79,10.0,WNW,5.8,-,N/A,,Clear,290,2013-09-01 20:35:00
3:55 PM,89.6,73.4,59,29.79,10.0,WNW,6.9,-,N/A,,Clear,300,2013-09-01 20:55:00
4:15 PM,89.6,73.4,59,29.79,10.0,NW,5.8,-,N/A,,Clear,310,2013-09-01 21:15:00
4:35 PM,86.0,73.4,66,29.79,10.0,Calm,Calm,-,N/A,,Clear,0,2013-09-01 21:35:00
4:55 PM,86.0,73.4,66,29.78,10.0,Calm,Calm,-,N/A,,Clear,0,2013-09-01 21:55:00
5:15 PM,89.6,71.6,55,29.78,10.0,Calm,Calm,-,N/A,,Clear,0,2013-09-01 22:15:00
5:35 PM,89.6,73.4,59,29.78,10.0,Calm,Calm,-,N/A,,Clear,0,2013-09-01 22:35:00
5:55 PM,87.8,73.4,62,29.78,10.0,WSW,3.5,-,N/A,,Clear,250,2013-09-01 22:55:00
6:15 PM,87.8,73.4,62,29.78,10.0,Calm,Calm,-,N/A,,Clear,0,2013-09-01 23:15:00
6:35 PM,86.0,73.4,66,29.78,10.0,Calm,Calm,-,N/A,,Clear,0,2013-09-01 23:35:00
6:55 PM,84.2,73.4,70,29.79,10.0,Calm,Calm,-,N/A,,Clear,0,2013-09-01 23:55:00
7:15 PM,82.4,75.2,79,29.80,10.0,Calm,Calm,-,N/A,,Clear,0,2013-09-02 00:15:00
7:35 PM,80.6,75.2,84,29.80,10.0,Calm,Calm,-,N/A,,Clear,0,2013-09-02 00:35:00
7:55 PM,78.8,75.2,89,29.81,10.0,Calm,Calm,-,N/A,,Clear,0,2013-09-02 00:55:00
8:15 PM,77.0,75.2,94,29.81,10.0,Calm,Calm,-,N/A,,Clear,0,2013-09-02 01:15:00
8:35 PM,75.2,73.4,94,29.81,10.0,Calm,Calm,-,N/A,,Clear,0,2013-09-02 01:35:00
8:55 PM,75.2,73.4,94,29.82,10.0,South,3.5,-,N/A,,Clear,190,2013-09-02 01:55:00
9:15 PM,75.2,73.4,94,29.82,10.0,Calm,Calm,-,N/A,,Clear,0,2013-09-02 02:15:00
9:35 PM,75.2,73.4,94,29.82,10.0,SSW,4.6,-,N/A,,Clear,200,2013-09-02 02:35:00
9:55 PM,75.2,73.4,94,29.83,10.0,SSW,4.6,-,N/A,,Clear,200,2013-09-02 02:55:00
10:15 PM,75.2,73.4,94,29.83,7.0,SSW,3.5,-,N/A,,Mostly Cloudy,210,2013-09-02 03:15:00
10:35 PM,75.2,73.4,94,29.83,7.0,WSW,4.6,-,N/A,,Mostly Cloudy,240,2013-09-02 03:35:00
10:55 PM,75.2,73.4,94,29.83,7.0,WSW,3.5,-,N/A,,Scattered Clouds,240,2013-09-02 03:55:00
11:15 PM,75.2,73.4,94,29.83,7.0,WSW,4.6,-,N/A,,Clear,240,2013-09-02 04:15:00
11:35 PM,75.2,73.4,94,29.83,10.0,West,5.8,-,N/A,,Scattered Clouds,280,2013-09-02 04:35:00
11:55 PM,73.4,71.6,94,29.84,10.0,WNW,4.6,-,N/A,,Scattered Clouds,300,2013-09-02 04:55:00